626  
ASUS41 KOKX 090310  
RWROKX  
 
REGIONAL WEATHER ROUNDUP  
NATIONAL WEATHER SERVICE NEW YORK NY  
1000 PM EST THU DEC 08 2022  
 
NOTE: "FAIR" INDICATES FEW OR NO CLOUDS BELOW 12,000 FEET WITH NO  
SIGNIFICANT WEATHER AND/OR S TO VISIBILITY
.  
 
NYZ071-072-176-178-NJZ106-104-090400-  
NEW YORK CITY METRO AREA  
 
CITY SKY/WX TMP DP RH WIND PRES REMARKS
 
CENTRAL PARK MOCLDY 44 32 62 VRB5 30.26S  
WORLD TRD CTR NOT AVBL  
BRONX LEHMAN C N/A 43 32 65 NW6 N/A  
LAGUARDIA ARPT MOCLDY 45 31 58 N9 30.24S  
QUEENS COLLEGE N/A 45 32 61 N9 N/A  
KENNEDY INTL MOCLDY 46 32 58 N13 30.24S  
BREEZY POINT N/A 46 N/A N/A N12G17 N/A  
BROOKLYN COLL N/A 46 32 57 N10 N/A  
STATEN ISLAND N/A 45 32 61 N8 N/A  
NEWARK/LIBERTY MOCLDY 46 32 58 NW14 30.25R  
TETERBORO MOCLDY 43 32 65 N8 30.24S  

 
 
NYZ177-179-078>081-090400-  
LONG ISLAND NEW YORK  
 
CITY SKY/WX TMP DP RH WIND PRES REMARKS
 
JONES BEACH N/A 46 N/A N/A N12 N/A  
WANTAGH N/A 45 32 61 N9 N/A  
HEMPSTEAD NOT AVBL  
MATINECOCK PT N/A 45 N/A N/A N18G24 N/A  
FARMINGDALE MOCLDY 45 30 55 N12 30.23S  
MACARTHUR/ISP MOCLDY 44 32 62 N12 30.22S  
STONY BROOK N/A 45 32 61 N8 N/A  
SHIRLEY MOCLDY 45 31 58 N10 30.22S  
MT SINAI HARB N/A 45 N/A N/A N12 N/A  
WESTHAMPTON MOCLDY 44 32 62 N10 30.22S  
EAST HAMPTON FAIR 43 28 55 N12G20 30.21S  
SOUTHOLD N/A 43 32 65 N14 N/A  
MONTAUK N/A 45 31 58 N14G21 30.22S  

 
 
NYZ052-065-067-090400-  
HUDSON VALLEY  
 
CITY SKY/WX TMP DP RH WIND PRES REMARKS
 
WHITE PLAINS PTCLDY 41 30 65 N12 30.22F  
LARCHMONT HARB N/A 43 N/A N/A NW9 N/A  
CROTON ON HUDS N/A 43 N/A N/A N9G15 N/A  
SOMERS N/A 37 32 81 N5 N/A WCI 34  
BREWSTER N/A 37 32 81 N8 N/A WCI 31  
NEWBURGH PTCLDY 37 30 75 CALM 30.25R  
MONTGOMERY CLEAR 34 29 82 E5 30.25R WCI 30  
OTISVILLE N/A 37 32 81 N3 N/A  
WARWICK N/A 37 32 81 NW3 N/A  
SUFFERN N/A 39 32 75 N6 N/A WCI 35  
POUGHKEEPSIE CLEAR 38 31 76 N8 30.27R WCI 32  
ALBANY CLEAR 32 26 78 NW7 30.32R WCI 26  

 
 
NJZ001-105-106-008-010-013-015-019>022-104-090400-  
NEW JERSEY  
 
CITY SKY/WX TMP DP RH WIND PRES REMARKS
 
NEWARK/LIBERTY MOCLDY 46 32 58 NW14 30.25R  
TETERBORO MOCLDY 43 32 65 N8 30.24S  
CALDWELL MOCLDY 43 31 62 N3 30.26R  
SOMERVILLE CLOUDY 44 33 65 N7 30.24S  
LINDEN FAIR 45 32 61 N8 30.26R  
PERTH AMBOY N/A 45 N/A N/A N12 N/A  
SUSSEX PTCLDY 39 32 76 CALM 30.27S  
ANDOVER N/A 42 32 67 N7 30.25S  
TRENTON CLOUDY 43 31 62 N6 30.25R  
MILLVILLE CLOUDY 46 32 58 NW7 30.25R  
ATLANTIC CITY CLOUDY 45 33 63 N9 30.23S  
WRIGHTSTOWN MOCLDY 43 34 71 N7 30.25R  
TOMS RIVER NOT AVBL  
BELMAR CLOUDY 45 36 70 N10 30.24S  

 
 
PAZ047>061-062-071-090400-  
EASTERN PENNSYLVANIA  
 
CITY SKY/WX TMP DP RH WIND PRES REMARKS
 
PHILADELPHIA CLOUDY 46 30 53 N10 30.27R  
ALLENTOWN MOCLDY 42 29 59 NW8 30.28R  
SCRANTON MOCLDY 40 30 67 N7 30.27S  

 
 
CTZ002-004>006-009-010-012-RIZ004-006-007-MAZ004-011-015-090400-  
SOUTHERN NEW ENGLAND  
 
IN CT  
 
CITY SKY/WX TMP DP RH WIND PRES REMARKS
 
BRADLEY INTL PTCLDY 38 27 64 N15 30.24S WCI 29  
HARTFORD CLEAR 40 28 62 N9 30.25R WCI 34  
DANBURY CLEAR 41 29 62 N10 30.24R  
WTRBURY/OXFORD CLEAR 34 30 85 N9 30.22S WCI 27  
NORWALK HARBOR N/A 43 N/A N/A NW9 N/A  
BRIDGEPORT PTCLDY 42 32 67 N6 30.23R  
MERIDEN CLEAR 42 29 59 N10 30.23S  
NEW HAVEN CLEAR 44 32 62 N9 30.23R  
CHESTER FAIR 39 30 70 N8G16 30.21R WCI 34  
GROTON CLEAR 42 29 59 N10 30.21S  
WILLIMANTIC CLEAR 37 28 70 N9 30.23R WCI 30  
 
IN RI  
 
CITY SKY/WX TMP DP RH WIND PRES REMARKS
 
PROVIDENCE PTCLDY 38 27 64 N12G20 30.22R WCI 30  
BLOCK ISLAND PTCLDY 40 28 62 N16G22 30.21R WCI 31  
WESTERLY CLEAR 40 29 64 N7 30.21S  
 
IN MA  
 
CITY SKY/WX TMP DP RH WIND PRES REMARKS
 
BOSTON CLEAR 38 27 64 NW14 30.23R WCI 30  
WORCESTER CLEAR 35 25 66 NW7 30.20R WCI 29  
WESTFIELD CLEAR 35 26 69 N12 30.25R WCI 27  
PROVINCETOWN CLOUDY 44 35 70 N18G25 30.19R  
NANTUCKET CLOUDY 46 37 71 N20G25 30.15S  

 
 
ANZ330-335-338-340-345-350-353-355-090400-  
COASTAL MARINE OBSERVATIONS  
 
 
STATION/POSITION TIME SKY/WX TEMP WIND PRES VSBY WAVE
 
AIR SEA DIR/SP/G HT/PER  
(UTC) (F) (DEG/KT/KT) (MB) (MI) (FT/S)  
NY HARB ENTRANCE 0250 52 340/ 17/ 21 1022.4 3/11  
20 S FIRE ISLAND 0250 54 1022.1 6/11  
GREAT SOUTH BAY NOT AVBL  
23 SSW MONTAUK P 0250 47 360/ 19/ 25 1022.7 5/11  
15 E BARNEGAT LI 0226 53 N/A 6/11  
HUDSON CANYON 0250 51 57 10/ 19/ 25 1021.0 7/12  
KINGS POINT 0230 45 49 330/ 11/ 13 1024.3  
EXECUTION ROCKS 0245 47 49 360/ 12 N/A  
WESTERN LI SOUND 0245 46 360/ 12/ 16 N/A  
CENTRAL LI SOUND NOT AVBL  
ROBBINS REEF 0230 45 350/ 11/ 14 1024.0  

 
 
>>>>>>>>>>>>>>>>>>>>>>>>>>>> KEY <<<<<<<<<<<<<<<<<<<<<<<<<<<  
> <  
> SKY/WX - SKY CONDITION/PRESENT WEATHER <  
> TMP - TEMPERATURE IN FAHRENHEIT <  
> DP - DEW POINT IN FAHRENHEIT <  
> RH - RELATIVE HUMIDITY IN PERCENT <  
> WIND - DIRECTION (FROM) AND SPEED IN MPH <  
> PRES - MEAN SEA LEVEL PRESSURE (INCHES OF HG) <  
> WCI - WIND CHILL INDEX <  
> VSB - VISIBILITY IN MILES <  
> HX - HEAT INDEX <  
> TC - TEMPERATURE IN CELSIUS <  
> VRB - VARIABLE WIND DIRECTION <  
> <  
>>>>>>>>>>>>>>>>>>>>>>>>>>>> KEY <<<<<<<<<<<<<<<<<<<<<<<<<<<  
 
 
CLICK HERE TO GO TO PREVIOUS BULLETINS.

The Nexlab NY Page
The Nexlab NJ Page
The Nexlab CT Page Main Text Page